Regional Weather Roundup
Issued by NWS Goodland, KS

Home | Current Version | Previous Version | Graphics & Text | Print | Product List | Glossary On
Versions: 1 2 3 4 5 6 7 8 9 10 11 12 13 14 15 16 17 18 19 20 21 22 23 24 25 26 27 28 29 30 31 32 33 34 35 36 37 38 39 40 41 42 43 44 45 46 47 48 49 50
863
ASUS43 KGLD 130459
RWRGLD

GOODLAND FORECAST AREA HOURLY WEATHER ROUNDUP
NATIONAL WEATHER SERVICE GOODLAND KS
1000 PM MST FRI FEB 12 2016

...OFFICIAL OBSERVATIONS...

CITY           SKY/WX    TMP DP  RH WIND       PRES   REMARKS
GOODLAND KS    CLOUDY    29  26  89 SE12G24   30.37F WCI  19
HILL CITY KS   CLOUDY    27  24  89 E13       30.48S WCI  16
IMPERIAL NEB     N/A     30  27  88 SE15      30.37F WCI  19
MCCOOK NEB     FOG       26  26 100 SE12      30.45R VSB 1/4 WCI  16
AKRON CO       FOG       29  29 100 SE20      30.26F VSB 1/2 WCI  16
BURLINGTON CO  FOG       29  27  92 SE15      30.33F VSB 1/4 WCI  18
LIMON CO       CLOUDY    29  29 100 S13       30.29S FOG     WCI  19
$$

...UNOFFICIAL OBSERVATIONS...

CITY           SKY/WX    TMP DP  RH WIND       PRES   REMARKS
COLBY KS       CLOUDY    30  30 100 E14       30.42S WCI  20
GOVE KS          N/A     31  32 100 MISG        N/A
LENORA KS        N/A     25  32 100 MISG        N/A
NORTON KS      CLOUDY    25  21  86 E10       30.47R WCI  15
SHARON SPRINGS   N/A     30  28  92 SE13        N/A  WCI  20
TRIBUNE KS     CLOUDY    28  27  93 E12       30.39  WCI  18
KIT CARSON CO    N/A     30  28  90 MISG        N/A
YUMA CO          N/A     30  29  96 S9          N/A
$$




USA.gov is the U.S. government's official web portal to all federal, state and local government web resources and services.